Miscellaneous Local Product
Issued by NWS North Platte, NE

Home | Current Version | Previous Version | Text Only | Print | Product List | Glossary On
Versions: 1 2 3 4 5 6 7 8 9 10 11 12 13 14 15 16 17 18 19 20 21 22 23 24 25 26 27 28 29 30 31 32 33 34 35 36 37 38 39 40 41 42 43 44 45 46 47 48 49 50
000
AXUS43 KLBF 230410
MISLBF


WESTERN AND NORTH CENTRAL NEBRASKA HOURLY WEATHER ROUNDUP
NATIONAL WEATHER SERVICE NORTH PLATTE NE
1100 PM CDT FRI MAY 22 2015

***STATIONS NOT REPORTING VARIABLES SUCH AS SKY/WEATHER OR
PRESSURE ARE PROVIDED BY THE NEBRASKA DEPARTMENT OF
ROADS...RAWS...AND APRS NETWORKS...AND ARE NOT UNDER
NATIONAL WEATHER SERVICE QUALITY CONTROL***

...OBSERVATIONS IN AND NEAR THE EASTERN PANHANDLE OF NEBRASKA...

CITY           SKY/WX    TMP DP  RH WIND       PRES   REMARKS
PINE RIDGE     CLOUDY    48  42  80 SE10      30.10S
CHADRON        CLOUDY    49  44  83 SE12      30.09R
ALLIANCE       CLOUDY    45  44  97 SE13      30.08S
SIDNEY         CLOUDY    45  44  97 E10       30.08S FOG
WHITECLAY        N/A     45  41  86 SE10        N/A
BIG SPRINGS      N/A     48  47  97 E7          N/A
$$

...OBSERVATIONS IN NORTH CENTRAL NEBRASKA...

CITY           SKY/WX    TMP DP  RH WIND       PRES   REMARKS
VALENTINE      CLOUDY    48  43  82 SE8       30.15S
THEDFORD       DRIZZLE   48  47  96 E9        30.14S
AINSWORTH      CLOUDY    48  46  95 SE9       30.16S
O`NEILL        DRIZZLE   51  50  97 SE5       30.18S
ORD            CLOUDY    50  48  93 E7        30.15S FOG
BROKEN BOW     LGT RAIN  50  48  93 E9        30.13S FOG
BROWNLEE         N/A     49  47  93 SE12        N/A
VALENTINE NWR    N/A     46  46  99 SE9         N/A
SPRINGVIEW       N/A     47  45  92 CALM        N/A
BREWSTER         N/A     48  48 100 E9          N/A
ROSE             N/A     47  47  99 E9          N/A
NEWPORT          N/A     47  47  99 E5          N/A
SARGENT          N/A     48  47  97 E3          N/A
COMSTOCK         N/A     51  51  99 E6          N/A
EWING            N/A     51  49  93 CALM        N/A
$$

...OBSERVATIONS IN SOUTHWEST NEBRASKA AND FAR NORTHEAST COLORADO...

CITY           SKY/WX    TMP DP  RH WIND       PRES   REMARKS
WRAY           CLOUDY   N/A N/A N/A E9        30.04R
IMPERIAL       CLOUDY    50  49  96 SE14      30.07R FOG
OGALLALA       DRIZZLE   47  47  99 E7        30.08S
NORTH PLATTE   CLOUDY    49  48  97 E13       30.10R
MCCOOK         CLOUDY    52  51  97 SE14      30.08R
LEXINGTON      CLOUDY    53  52  97 SE12      30.12S FOG
PAXTON           N/A     49  48  96 E8          N/A
GOTHENBURG       N/A     50  48  93 SE7         N/A
CALLAWAY         N/A     49  48  98 E12         N/A
$$

...NORTH PLATTE AREA...

CITY           SKY/WX    TMP DP  RH WIND       PRES   REMARKS
AIRPORT        CLOUDY    49  48  97 E13       30.10R
DOWNTOWN         N/A     49  47  95 MISG        N/A
$$

...SOME WEATHER OBSERVATIONS FROM AROUND THE REGION...

CITY           SKY/WX    TMP DP  RH WIND       PRES   REMARKS
DENVER         RAIN      49  47  93 CALM      30.06R FOG
LARAMIE        MOCLDY    40  37  89 SE15      30.02R WCI  32
CHEYENNE       CLOUDY    45  43  93 SE16      30.03F FOG
SCOTTSBLUFF    CLOUDY    46  45  96 SE15      30.08R
RAPID CITY     CLOUDY    50  43  77 S10       30.09S
PIERRE         PTCLDY    50  41  71 S12       30.15R
WINNER         CLOUDY    52  41  66 SE9       30.17R
SIOUX FALLS    CLOUDY    57  43  59 S3        30.19S
OMAHA          CLOUDY    60  49  66 SE7       30.20R
GRAND ISLAND   CLOUDY    54  49  83 SE13      30.17R
KANSAS CITY    CLOUDY    60  51  72 SE7       30.21R
WICHITA        CLOUDY    55  52  89 SE13      30.16R
HAYS           CLOUDY    55  48  76 SE14      30.12R
LIBERAL        PTCLDY    57  52  82 SE17      30.06R
GOODLAND       FOG       52  52 100 SE21G26   30.03R VSB 1/2
$$



USA.gov is the U.S. government's official web portal to all federal, state and local government web resources and services.